Weather in The Hague

Netherlands     52°04′49″N   4°18′34″E
temp.,
°C
wind,
m/s
gust,
m/s
humid.,
%
clouds,
%
prec.,
mm/h
press.,
hPa
HPBL,
m
19 april, mon
mon1923:00+9nne36785 0.0 1023191
02:00+8nne36795 0.0 1023152
05:00+7nnw36865 0.0 1022143
08:00+8n36795 0.0 1021216
11:00+11n3463100 0.0 1021481
14:00+12nnw236184 0.1 1020887
17:00+11n24706 0.3 1019447
20:00+12ene247516 1.0 1019141
20 april, tue
tue2023:00+9ese23865 0.0 101951
02:00+8se22875 0.0 101928
05:00+8ese11885 0.0 101813
08:00+8ese11865 0.0 101946
11:00+12nnw11685 0.0 1019428
14:00+14nnw335765 0.1 10181228
17:00+12nnw4565100 0.1 1017331
20:00+11n466780 0.1 1017211
21 april, wed
wed2123:00+10nne3677100 0.0 1018171
02:00+10n2470100 0.0 1018132
05:00+9n3675100 0.0 1018216
08:00+9n5883100 0.0 1019440
11:00+10nne796723 0.0 1020879
14:00+10n78534 0.0 1021931
17:00+9n79553 0.0 10211030
20:00+8n795996 0.0 1022958
22 april, thu
thu2223:00+6nne585772 0.0 1023956
02:00+6n4661100 0.0 1023915
05:00+6nnw5765100 0.0 1023778
08:00+7nnw6865100 0.0 10231189
11:00+8nnw6860100 0.0 10241208
14:00+9nnw79629 0.0 10251304
17:00+9nnw79687 0.1 10251275
20:00+8nnw69793 0.1 1026993
23 april, fri
fri2323:00+7n58725 0.0 1027846
02:00+7n47754 0.0 1027584
05:00+6n47783 0.0 1027435
08:00+7n36752 0.0 1028697
11:00+9n45624 0.0 1029936
14:00+10nnw55584 0.0 1029982
17:00+10nnw56615 0.0 1029894
20:00+8n57695 0.0 1029661